TimeEDT,TemperatureF,Dew PointF,Humidity,Sea Level PressureIn,VisibilityMPH,Wind Direction,Wind SpeedMPH,Gust SpeedMPH,PrecipitationIn,Events,Conditions,WindDirDegrees,DateUTC
12:53 AM,41.0,26.1,55,30.30,10.0,Calm,Calm,-,N/A,,Overcast,0,2013-03-15 04:53:00
1:53 AM,41.0,26.1,55,30.28,10.0,Calm,Calm,-,N/A,,Overcast,0,2013-03-15 05:53:00
2:53 AM,39.0,26.1,60,30.27,10.0,Calm,Calm,-,N/A,,Scattered Clouds,0,2013-03-15 06:53:00
3:53 AM,37.0,27.0,67,30.25,10.0,Calm,Calm,-,N/A,,Partly Cloudy,0,2013-03-15 07:53:00
4:53 AM,35.1,27.0,72,30.23,10.0,SW,3.5,-,N/A,,Clear,220,2013-03-15 08:53:00
5:53 AM,34.0,27.0,75,30.22,10.0,Calm,Calm,-,N/A,,Clear,0,2013-03-15 09:53:00
6:53 AM,32.0,27.0,82,30.21,10.0,Calm,Calm,-,N/A,,Clear,0,2013-03-15 10:53:00
7:53 AM,32.0,27.0,82,30.21,10.0,Calm,Calm,-,N/A,,Clear,0,2013-03-15 11:53:00
8:53 AM,37.0,30.0,76,30.20,10.0,Calm,Calm,-,N/A,,Clear,0,2013-03-15 12:53:00
9:53 AM,43.0,30.9,62,30.18,10.0,SW,4.6,-,N/A,,Clear,230,2013-03-15 13:53:00
10:53 AM,46.0,30.9,56,30.17,10.0,Variable,6.9,-,N/A,,Clear,0,2013-03-15 14:53:00
11:53 AM,50.0,32.0,50,30.14,10.0,West,8.1,-,N/A,,Clear,260,2013-03-15 15:53:00
12:53 PM,55.0,32.0,42,30.10,10.0,Variable,5.8,-,N/A,,Clear,0,2013-03-15 16:53:00
1:53 PM,60.1,34.0,38,30.07,10.0,WSW,8.1,19.6,N/A,,Clear,240,2013-03-15 17:53:00
2:53 PM,63.0,34.0,34,30.02,10.0,WSW,5.8,-,N/A,,Clear,250,2013-03-15 18:53:00
3:53 PM,66.9,36.0,32,29.98,10.0,SSW,5.8,-,N/A,,Clear,210,2013-03-15 19:53:00
4:53 PM,68.0,37.0,32,29.95,10.0,SSW,6.9,-,N/A,,Clear,200,2013-03-15 20:53:00
5:53 PM,68.0,39.0,35,29.95,10.0,South,8.1,-,N/A,,Mostly Cloudy,190,2013-03-15 21:53:00
6:53 PM,66.9,39.9,37,29.94,10.0,Variable,4.6,-,N/A,,Mostly Cloudy,0,2013-03-15 22:53:00
7:53 PM,64.9,39.9,40,29.94,10.0,Calm,Calm,-,N/A,,Scattered Clouds,0,2013-03-15 23:53:00
8:53 PM,61.0,41.0,48,29.93,10.0,Calm,Calm,-,N/A,,Clear,0,2013-03-16 00:53:00
9:53 PM,60.1,42.1,51,29.92,10.0,Calm,Calm,-,N/A,,Clear,0,2013-03-16 01:53:00
10:53 PM,61.0,42.1,50,29.92,10.0,Calm,Calm,-,N/A,,Clear,0,2013-03-16 02:53:00
11:53 PM,60.1,42.1,51,29.91,10.0,Calm,Calm,-,N/A,,Clear,0,2013-03-16 03:53:00